GW3775 Weather Reports


Display with metric or nautical units.
time (UTC)temp
F
wind
direction
speed
MPH
gust
MPH
rain 1hr
in
rain 24hr
in
rain mn
in
humidity
%
barometer
mb
20260508080550 52 129 1.0 3.0 0.00 0.59 0.01 95 1015.4
20260508075925 51 110 0.0 3.0 0.00 0.59 0.01 96 1015.7
20260508070548 48 0 0.0 2.0 0.00 0.59 0.01 96 1015.5
20260508070058 48 0 0.0 2.0 0.00 0.59 0.01 96 1015.5
20260508065548 48 102 1.0 2.0 0.00 0.59 0.01 95 1015.5
20260508065255 48 98 0.0 2.0 0.00 0.59 0.01 96 1015.4
20260508063550 48 0 0.0 1.0 0.00 0.58 0.00 96 1015.1
20260508063051 48 147 0.0 1.0 0.00 0.58 0.00 97 1014.9
20260508062549 47 147 0.0 1.0 0.00 0.58 0.00 97 1014.9
20260508062049 47 0 0.0 1.0 0.00 0.58 0.00 96 1015.2
20260508061553 46 0 0.0 1.0 0.00 0.58 0.00 96 1015.0
20260508061049 46 148 0.0 1.0 0.00 0.58 0.00 96 1015.1
20260508060553 45 0 0.0 1.0 0.00 0.58 0.00 96 1014.9
20260508060050 45 147 0.0 0.0 0.00 0.58 0.00 96 1014.7
20260508055549 44 0 0.0 0.0 0.00 0.58 0.00 96 1015.2
20260508055050 44 146 0.0 0.0 0.00 0.58 0.00 95 1014.9
20260508054554 44 0 0.0 0.0 0.00 0.58 0.00 95 1015.1
20260508054052 44 0 0.0 0.0 0.00 0.58 0.00 95 1014.9
20260508053549 44 0 0.0 0.0 0.00 0.58 0.00 95 1014.7
20260508053056 44 0 0.0 1.0 0.00 0.58 0.00 95 1014.7
20260508052550 44 146 0.0 1.0 0.00 0.58 0.00 95 1014.6
20260508052050 44 147 0.0 2.0 0.00 0.58 0.00 95 1014.5
20260508051551 44 0 0.0 3.0 0.00 0.58 0.00 95 1014.6
20260508051049 44 155 1.0 3.0 0.00 0.58 0.00 95 1014.5
20260508050549 44 112 0.0 2.0 0.00 0.58 0.00 95 1014.6
20260508050058 44 143 0.0 2.0 0.00 0.58 0.00 95 1014.3
20260508045554 44 0 0.0 2.0 0.00 0.58 0.00 95 1014.3
20260508045051 44 148 0.0 3.0 0.00 0.58 0.00 95 1014.4
20260508044552 43 129 1.0 3.0 0.00 0.58 0.00 95 1014.3
20260508044049 44 150 0.0 3.0 0.00 0.58 0.00 95 1014.4
20260508043549 43 162 1.0 3.0 0.00 0.58 0.00 95 1014.4
20260508043052 43 164 2.0 3.0 0.00 0.58 0.00 95 1014.3
20260508042550 43 136 0.0 1.0 0.00 0.58 0.00 95 1014.0
20260508042051 43 0 0.0 1.0 0.00 0.58 0.00 95 1014.0
20260508041555 43 0 0.0 2.0 0.00 0.58 0.00 95 1013.9
20260508041050 43 0 0.0 2.0 0.00 0.58 0.00 95 1013.7
20260508040549 43 133 0.0 2.0 0.00 0.58 0.00 95 1013.7
20260508040110 43 0 0.0 0.0 0.00 0.58 0.00 95 1013.8
20260508035551 43 0 0.0 0.0 0.00 0.58 0.00 95 1013.6
20260508035049 43 0 0.0 0.0 0.00 0.58 0.00 95 1014.0
20260508034555 43 145 0.0 0.0 0.00 0.58 0.00 95 1014.0
20260508034049 43 0 0.0 0.0 0.00 0.58 0.00 95 1014.1
20260508033547 43 0 0.0 1.0 0.00 0.58 0.00 95 1014.0
20260508033518 43 145 0.0 1.0 0.00 0.58 0.00 95 1014.2
20260508032047 43 0 0.0 0.0 0.00 0.58 0.00 95 1014.2
20260508031604 43 0 0.0 1.0 0.00 0.58 0.00 95 1014.2
20260508031049 43 0 0.0 2.0 0.00 0.58 0.00 95 1014.0
20260508030549 43 0 0.0 2.0 0.00 0.58 0.00 95 1014.2
20260508030122 43 152 0.0 3.0 0.00 0.58 0.00 95 1014.4
20260508025549 43 137 1.0 3.0 0.00 0.58 0.00 95 1014.5
20260508025049 43 135 0.0 0.0 0.00 0.58 0.00 95 1014.5
20260508024604 43 0 0.0 0.0 0.00 0.58 0.00 95 1014.3
20260508024049 43 0 0.0 1.0 0.00 0.58 0.00 95 1014.5
20260508023549 43 0 0.0 1.0 0.00 0.58 0.00 95 1014.5
20260508023108 43 132 0.0 1.0 0.00 0.58 0.00 95 1014.6
20260508022049 43 0 0.0 0.0 0.00 0.58 0.00 95 1014.5
20260508021600 43 0 0.0 0.0 0.00 0.58 0.00 94 1014.6
20260508021049 43 0 0.0 0.0 0.00 0.58 0.00 94 1014.7
20260508020548 43 0 0.0 1.0 0.00 0.58 0.00 94 1014.7
20260508020053 43 0 0.0 1.0 0.00 0.58 0.00 95 1014.8
20260508015549 43 153 0.0 1.0 0.00 0.58 0.00 95 1014.9
20260508015049 43 152 0.0 1.0 0.00 0.58 0.00 95 1015.1
20260508014553 43 153 0.0 2.0 0.00 0.58 0.00 94 1015.0
20260508014450 43 0 0.0 2.0 0.00 0.58 0.00 94 1014.9
20260508012051 43 0 0.0 0.0 0.00 0.58 0.00 94 1015.2
20260508011608 44 0 0.0 0.0 0.00 0.58 0.00 94 1015.1
20260508011050 44 0 0.0 0.0 0.00 0.58 0.00 94 1015.2
20260508010549 44 0 0.0 0.0 0.00 0.58 0.00 93 1015.2
20260508010105 45 0 0.0 0.0 0.00 0.58 0.00 94 1015.2
20260508005549 45 0 0.0 0.0 0.00 0.58 0.00 95 1015.1
20260508005050 45 0 0.0 0.0 0.00 0.58 0.00 94 1015.4
20260508004559 44 0 0.0 0.0 0.00 0.58 0.00 94 1015.4
20260508004050 44 0 0.0 0.0 0.00 0.58 0.00 94 1015.6
20260508003549 44 0 0.0 0.0 0.00 0.58 0.00 94 1015.6
20260508003110 44 0 0.0 0.0 0.00 0.58 0.00 93 1015.7
20260508002548 45 0 0.0 0.0 0.00 0.58 0.00 93 1015.7
20260508002049 45 0 0.0 0.0 0.00 0.58 0.00 94 1015.7
20260508001555 45 0 0.0 0.0 0.00 0.58 0.00 94 1015.7
20260508001049 45 0 0.0 0.0 0.00 0.58 0.00 94 1015.8
20260508000549 45 0 0.0 0.0 0.00 0.58 0.00 94 1015.8
20260508000053 45 0 0.0 0.0 0.00 0.58 0.00 93 1016.0
20260507235549 45 0 0.0 0.0 0.00 0.58 0.00 93 1016.1
20260507235049 45 0 0.0 0.0 0.00 0.58 0.00 93 1016.0
20260507234555 45 0 0.0 0.0 0.00 0.58 0.00 93 1016.0
20260507234049 45 0 0.0 0.0 0.00 0.58 0.00 93 1016.2
20260507233550 46 0 0.0 0.0 0.00 0.58 0.00 93 1016.2
20260507233059 46 0 0.0 0.0 0.00 0.58 0.00 93 1016.1
20260507232550 46 0 0.0 1.0 0.00 0.58 0.00 93 1016.0
20260507232049 46 0 0.0 1.0 0.00 0.58 0.00 93 1016.0
20260507231608 46 0 0.0 1.0 0.00 0.58 0.00 93 1016.0
20260507231049 46 0 0.0 1.0 0.00 0.58 0.00 93 1016.0
20260507230548 47 0 0.0 1.0 0.00 0.58 0.00 93 1016.0
20260507230059 46 150 0.0 0.0 0.00 0.58 0.00 93 1016.1
20260507225549 46 0 0.0 0.0 0.00 0.58 0.00 93 1015.9
20260507225049 46 0 0.0 0.0 0.00 0.57 0.00 93 1016.0
20260507224605 47 0 0.0 0.0 0.00 0.57 0.00 92 1016.1
20260507224047 47 0 0.0 0.0 0.00 0.57 0.00 93 1016.0
20260507223549 47 0 0.0 0.0 0.00 0.57 0.00 92 1016.0
20260507223053 47 0 0.0 0.0 0.00 0.57 0.00 92 1016.0
20260507222551 47 0 0.0 1.0 0.00 0.57 0.00 92 1016.1
20260507222048 48 0 0.0 1.0 0.00 0.57 0.00 93 1016.2
20260507221553 47 0 0.0 1.0 0.00 0.57 0.00 93 1016.2
20260507221049 48 0 0.0 0.0 0.00 0.57 0.00 92 1016.0
20260507220548 48 0 0.0 0.0 0.00 0.57 0.00 92 1016.2
20260507220056 48 0 0.0 0.0 0.00 0.57 0.00 92 1016.2
20260507215550 48 138 0.0 1.0 0.00 0.57 0.57 92 1016.2
20260507215048 49 0 0.0 2.0 0.00 0.57 0.57 92 1016.2
20260507214607 49 0 1.0 2.0 0.00 0.57 0.57 92 1016.2
20260507214048 49 132 0.0 0.0 0.00 0.57 0.57 92 1016.2
20260507213553 49 0 0.0 0.0 0.00 0.57 0.57 91 1016.0
20260507213109 49 0 0.0 1.0 0.00 0.57 0.57 91 1016.0
20260507212549 50 0 0.0 1.0 0.00 0.57 0.57 91 1015.9
20260507212049 50 0 0.0 2.0 0.00 0.57 0.57 91 1016.1
20260507211555 50 266 0.0 3.0 0.00 0.57 0.57 92 1015.9
20260507211052 50 266 1.0 3.0 0.00 0.57 0.57 92 1015.9
20260507210549 50 193 1.0 3.0 0.00 0.57 0.57 93 1015.8
20260507210056 50 318 1.0 2.0 0.00 0.57 0.57 93 1015.9
20260507205554 49 319 0.0 1.0 0.00 0.57 0.57 92 1015.9
20260507205049 49 0 0.0 3.0 0.00 0.57 0.57 92 1016.0
20260507204612 49 0 0.0 3.0 0.00 0.57 0.57 92 1015.8
20260507204048 49 318 1.0 6.0 0.00 0.57 0.57 92 1015.5
20260507203552 49 318 3.0 6.0 0.00 0.57 0.57 92 1015.3
20260507203103 50 304 3.0 6.0 0.00 0.57 0.57 91 1015.2
20260507202548 50 45 0.0 3.0 0.00 0.57 0.57 91 1015.3
20260507202048 50 43 0.0 3.0 0.00 0.57 0.57 90 1015.1
20260507201557 50 41 2.0 3.0 0.00 0.57 0.57 90 1015.1
20260507201051 50 38 1.0 3.0 0.00 0.57 0.57 90 1015.1
20260507200548 50 0 0.0 0.0 0.00 0.57 0.57 89 1014.9
20260507200053 50 0 0.0 1.0 0.00 0.57 0.57 89 1014.9
20260507195549 50 0 0.0 1.0 0.00 0.57 0.57 88 1014.9
20260507195052 50 0 0.0 2.0 0.00 0.57 0.57 88 1014.7
20260507194555 50 0 1.0 2.0 0.00 0.57 0.57 88 1014.9
20260507194048 51 0 0.0 3.0 0.00 0.57 0.57 88 1014.8
20260507193548 51 192 1.0 3.0 0.00 0.57 0.57 88 1014.7
20260507193159 51 219 1.0 4.0 0.00 0.57 0.57 88 1015.0
20260507192050 51 323 2.0 6.0 0.00 0.57 0.57 88 1014.4
20260507191601 51 192 2.0 6.0 0.00 0.57 0.57 88 1014.7
20260507191050 51 179 1.0 6.0 0.00 0.57 0.57 88 1014.4
20260507190550 51 204 2.0 6.0 0.00 0.57 0.57 88 1014.4
20260507190104 52 176 2.0 6.0 0.00 0.57 0.57 88 1014.3
20260507185550 52 197 2.0 6.0 0.00 0.57 0.57 88 1014.4
20260507185049 52 172 2.0 6.0 0.00 0.57 0.57 87 1014.3
20260507184556 52 195 2.0 5.0 0.00 0.57 0.57 86 1014.2
20260507184050 53 183 0.0 4.0 0.00 0.57 0.57 87 1014.1
20260507183549 52 267 1.0 4.0 0.00 0.57 0.57 87 1014.1
20260507183057 52 177 0.0 4.0 0.00 0.57 0.57 86 1014.3
20260507182553 52 180 1.0 4.0 0.00 0.57 0.57 85 1014.2
20260507182051 53 298 2.0 4.0 0.00 0.57 0.57 84 1014.2
20260507181553 52 2 1.0 4.0 0.00 0.57 0.57 85 1014.3
20260507181050 52 0 0.0 3.0 0.00 0.57 0.57 87 1014.2
20260507180551 52 0 0.0 4.0 0.00 0.57 0.57 87 1014.2
20260507180105 52 0 1.0 4.0 0.00 0.57 0.57 89 1014.3
20260507175550 53 49 0.0 2.0 0.00 0.57 0.57 89 1014.2
20260507175050 53 48 1.0 4.0 0.00 0.57 0.57 90 1014.5
20260507174556 53 311 1.0 4.0 0.00 0.57 0.57 90 1014.3
20260507174053 53 172 0.0 2.0 0.00 0.57 0.57 90 1014.3
20260507173553 52 0 0.0 3.0 0.00 0.57 0.57 91 1014.3
20260507173058 52 218 0.0 3.0 0.00 0.57 0.57 91 1014.2
20260507172854 52 0 0.0 1.0 0.00 0.57 0.57 92 1014.3
20260507171602 52 0 0.0 3.0 0.02 0.57 0.57 92 1014.3
20260507171049 52 213 0.0 3.0 0.02 0.57 0.57 92 1014.3
20260507170549 52 214 0.0 1.0 0.03 0.57 0.57 92 1014.5
20260507170054 52 0 0.0 7.0 0.03 0.57 0.57 91 1014.5
20260507165551 52 213 1.0 7.0 0.04 0.60 0.57 92 1014.5
20260507165049 51 206 2.0 7.0 0.06 0.60 0.57 91 1014.5
20260507164559 51 216 3.0 5.0 0.06 0.60 0.57 91 1014.4
20260507164050 51 217 1.0 4.0 0.07 0.60 0.57 91 1014.6
20260507163549 51 194 1.0 5.0 0.06 0.59 0.56 91 1014.6
20260507163105 51 206 1.0 5.0 0.06 0.59 0.56 91 1014.5
20260507162550 51 195 1.0 4.0 0.06 0.59 0.56 90 1014.5
20260507162051 52 190 2.0 4.0 0.06 0.59 0.55 90 1014.4
20260507161605 52 212 2.0 4.0 0.05 0.58 0.55 90 1014.4
20260507161052 52 313 1.0 4.0 0.05 0.58 0.55 89 1014.3
20260507160552 52 194 1.0 4.0 0.04 0.57 0.54 88 1014.3
20260507160101 52 176 0.0 3.0 0.03 0.56 0.53 88 1014.2
20260507155549 52 10 0.0 3.0 0.03 0.55 0.52 87 1014.3
20260507155053 52 10 1.0 3.0 0.02 0.54 0.51 87 1014.2
20260507154555 52 10 1.0 6.0 0.05 0.54 0.51 88 1014.2
20260507154053 52 240 1.0 8.0 0.04 0.53 0.50 88 1014.2
20260507153551 52 288 3.0 9.0 0.04 0.53 0.50 87 1013.8
20260507153058 52 261 3.0 15.0 0.04 0.53 0.50 87 1013.6
20260507152550 52 202 6.0 15.0 0.04 0.53 0.50 86 1013.5
20260507152450 52 196 4.0 9.0 0.04 0.52 0.49 87 1013.5
20260507151550 52 180 4.0 9.0 0.04 0.52 0.49 87 1013.6
20260507151051 52 199 2.0 5.0 0.05 0.52 0.49 87 1013.2
20260507150549 52 208 3.0 8.0 0.06 0.52 0.49 87 1013.5
20260507150052 53 173 1.0 8.0 0.06 0.52 0.49 87 1013.3
20260507145550 53 296 4.0 8.0 0.07 0.52 0.49 86 1013.3
20260507145052 53 301 1.0 5.0 0.07 0.51 0.48 85 1013.5
20260507144558 54 159 2.0 6.0 0.04 0.48 0.45 85 1013.5
20260507144048 54 284 2.0 6.0 0.05 0.48 0.45 87 1013.3
20260507143653 53 287 4.0 6.0 0.06 0.48 0.45 87 1013.3
20260507141601 53 326 3.0 8.0 0.08 0.48 0.44 90 1013.1
20260507141049 53 298 4.0 7.0 0.08 0.47 0.44 91 1013.2
20260507140549 52 294 4.0 7.0 0.08 0.46 0.43 91 1013.2
20260507140108 52 282 3.0 7.0 0.10 0.46 0.43 91 1013.7
20260507135548 52 313 5.0 7.0 0.10 0.45 0.42 90 1013.9
20260507135048 53 326 1.0 5.0 0.11 0.44 0.41 90 1014.1
20260507134552 53 308 2.0 7.0 0.11 0.44 0.40 90 1014.1
20260507134048 52 325 4.0 7.0 0.10 0.43 0.40 89 1013.8
20260507133548 52 296 4.0 6.0 0.10 0.42 0.39 89 1013.7
20260507133059 52 166 3.0 6.0 0.11 0.41 0.38 89 1013.6
20260507132551 52 298 1.0 8.0 0.11 0.40 0.37 90 1013.8
20260507132047 52 203 1.0 11.0 0.14 0.40 0.37 90 1013.6
20260507131609 52 249 3.0 11.0 0.18 0.39 0.36 89 1013.7
20260507131052 52 251 6.0 11.0 0.20 0.38 0.35 88 1013.6
20260507130549 53 313 6.0 12.0 0.23 0.37 0.34 88 1013.7
20260507130112 53 300 7.0 12.0 0.26 0.36 0.33 85 1013.8
20260507125551 53 247 5.0 9.0 0.28 0.35 0.32 84 1013.8
20260507125049 54 304 3.0 6.0 0.27 0.33 0.30 86 1014.0
20260507125022 54 112 1.0 7.0 0.29 0.33 0.29 86 1013.9
20260507123550 56 20 1.0 5.0 0.28 0.31 0.28 88 1014.1
20260507123057 56 19 1.0 3.0 0.27 0.30 0.27 87 1014.1
20260507122548 56 88 0.0 3.0 0.25 0.28 0.25 86 1014.1
20260507122052 56 60 1.0 3.0 0.22 0.25 0.22 85 1014.0
20260507121557 56 0 1.0 3.0 0.18 0.21 0.18 85 1014.2
20260507121053 56 35 0.0 4.0 0.14 0.17 0.14 85 1014.2
20260507120549 56 46 1.0 4.0 0.11 0.14 0.11 84 1014.1
20260507120056 56 79 1.0 4.0 0.05 0.08 0.05 82 1014.1
20260507115551 57 85 0.0 4.0 0.03 0.07 0.03 81 1014.1
20260507115049 57 26 0.0 13.0 0.03 0.06 0.03 77 1013.9
20260507114552 59 38 6.0 13.0 0.00 0.03 0.00 72 1014.2
20260507114048 60 318 2.0 9.0 0.00 0.03 0.00 75 1014.1
20260507113549 60 64 3.0 9.0 0.00 0.03 0.00 75 1014.0
20260507113051 60 133 4.0 8.0 0.00 0.03 0.00 74 1013.9
20260507112551 61 261 3.0 11.0 0.00 0.03 0.00 74 1014.1
20260507112050 60 72 4.0 11.0 0.00 0.03 0.00 74 1014.1
20260507111555 61 328 4.0 11.0 0.00 0.03 0.00 72 1014.2
20260507111049 62 294 4.0 10.0 0.00 0.03 0.00 69 1014.1
20260507110548 62 209 2.0 6.0 0.00 0.03 0.00 70 1014.2
20260507110052 62 180 2.0 12.0 0.00 0.03 0.00 69 1014.3
20260507105548 62 300 3.0 12.0 0.00 0.03 0.00 72 1014.3
20260507105048 61 290 4.0 8.0 0.00 0.03 0.00 73 1014.3
20260507104554 61 284 3.0 9.0 0.00 0.03 0.00 70 1014.3
20260507104047 61 327 3.0 10.0 0.00 0.03 0.00 73 1014.6
20260507103548 60 296 5.0 10.0 0.00 0.03 0.00 75 1014.7
20260507103053 60 308 5.0 10.0 0.00 0.03 0.00 74 1014.6
20260507102548 59 177 5.0 11.0 0.00 0.03 0.00 75 1014.5
20260507102049 59 292 6.0 11.0 0.00 0.03 0.00 75 1014.6
20260507101552 59 303 5.0 11.0 0.00 0.03 0.00 74 1014.6
20260507101048 60 318 3.0 9.0 0.00 0.03 0.00 75 1014.7
20260507100549 59 284 3.0 10.0 0.00 0.03 0.00 75 1014.7
20260507100057 59 309 4.0 12.0 0.00 0.03 0.00 76 1014.9
20260507095549 59 311 5.0 12.0 0.00 0.03 0.00 77 1014.7
20260507095049 59 305 6.0 11.0 0.00 0.03 0.00 76 1014.9
20260507094554 59 318 5.0 12.0 0.00 0.03 0.00 75 1014.9
20260507094049 59 327 4.0 13.0 0.00 0.03 0.00 75 1014.8
20260507093549 59 292 7.0 13.0 0.00 0.03 0.00 75 1014.9
20260507093241 60 308 4.0 9.0 0.00 0.03 0.00 76 1014.9
20260507091554 58 310 7.0 11.0 0.00 0.03 0.00 77 1014.6
20260507091051 58 299 6.0 11.0 0.00 0.03 0.00 79 1014.8
20260507091037 58 285 5.0 12.0 0.00 0.03 0.00 79 1014.6
20260507085553 58 334 6.0 12.0 0.00 0.03 0.00 78 1014.7
20260507085050 58 324 4.0 12.0 0.00 0.03 0.00 79 1014.8
20260507084555 57 360 2.0 9.0 0.00 0.03 0.00 80 1014.7
20260507084049 57 320 3.0 10.0 0.00 0.03 0.00 79 1014.8
20260507083550 57 19 4.0 10.0 0.00 0.03 0.00 82 1014.7
20260507083056 56 293 5.0 10.0 0.00 0.03 0.00 80 1014.6
20260507082552 56 4 3.0 10.0 0.00 0.03 0.00 81 1014.7
20260507082051 56 337 4.0 12.0 0.00 0.03 0.00 81 1014.6
20260507081552 56 301 5.0 12.0 0.00 0.03 0.00 83 1014.6
20260507081326 56 278 2.0 11.0 0.00 0.03 0.00 81 1014.7